Weather in Kazantsevo

Russia / Novosibirsk Oblast     55°04′37″N   77°41′02″E
temp.,
°C
wind,
m/s
gust,
m/s
humid.,
%
clouds,
%
prec.,
mm/h
press.,
hPa
HPBL,
m
27 november, sat
sat2701:00−13sw61094100 0.0 1031223
04:00−12sw71293100 0.0 1031293
07:00−10sw81391100 0.0 1031380
10:00−9ssw81494100 0.3 1030428
13:00−8ssw101792100 0.4 1029477
16:00−7sw101691100 0.1 1028542
19:00−6sw101791100 0.2 1027537
22:00−5sw111791100 0.1 1026610
28 november, sun
sun2801:00−4wsw101693100 0.3 1027640
04:00−5wsw101692100 0.1 1027465
07:00−6wsw91492100 0.2 1029363
10:00−5wsw81392100 0.0 1030346
13:00−6wsw7119299 0.0 1031290
16:00−6wsw6109377 0.0 1033196
19:00−7wsw699384 0.0 1034147
22:00−8sw579324 0.0 103599
29 november, mon
mon2901:00−9sw589180 0.0 1035121
04:00−10sw479082 0.0 103487
07:00−10sw478970 0.0 103483
10:00−11ssw589099 0.0 1033120
13:00−9ssw5984100 0.0 1032174
16:00−9ssw5880100 0.0 1031144
19:00−9ssw5981100 0.0 1030129
22:00−9ssw5981100 0.0 1029134
30 november, tue
tue3001:00−9sw5879100 0.0 1028131
04:00−9sw5880100 0.0 1027108
07:00−9sw46835 0.0 102659
10:00−10sw458724 0.0 102741
13:00−9sw4785100 0.0 1027107
16:00−9sw45855 0.0 102751
19:00−10sw33895 0.0 102822
22:00−11ssw43905 0.0 102839
1 december, wed
wed101:00−12ssw33925 0.0 102828
04:00−13s229225 0.0 102910
07:00−13sse458925 0.0 102757
10:00−13s47876 0.0 102774
13:00−10s611826 0.0 1025153
16:00−9s47865 0.0 102372
19:00−9s58865 0.0 102280
22:00−9s47875 0.0 102170